#timestamp,LO_Frequency,Hit,StdDev 
1587996015.7,286047000.8,N
1587996035.5,286046998.3,N
1587996055.3,286047000.9,N
1587996075.2,286046998.8,N
1587996095.0,286046998.7,N
1587996095.9,286046998.7,N
1587996115.8,286046997.7,N
1587996135.6,286047001.2,N
1587996155.4,286046999.0,N
1587996175.3,286046998.2,N
1587996195.1,286046999.0,N
1587996215.8,286046998.2,N
1587996235.7,286047001.0,N
1587996255.5,286047001.0,N
1587996275.4,286047000.7,N
1587996295.2,286046996.6,N
1587996315.0,286046999.2,N
1587996315.9,286046999.2,N
1587996335.8,286046998.1,N
1587996355.6,286046998.6,N
1587996375.4,286046998.7,N
1587996395.3,286046999.0,N
1587996415.1,286047001.0,N
1587996435.9,286046998.2,N
1587996455.7,286046996.6,N
1587996475.5,286046997.2,N
1587996495.4,286046997.1,N
1587996515.2,286046998.7,N
1587996535.1,286046997.3,N
1587996536.0,286046997.3,N
1587996555.8,286046997.0,N
1587996575.6,286046996.7,N
1587996595.5,286047001.0,N
1587996615.3,286046998.3,N
1587996635.2,286047000.5,N
1587996655.9,286047000.6,N
1587996675.7,286047000.5,N
1587996695.6,286047001.0,N
1587996715.4,286046998.7,N
1587996735.2,286046998.3,N
1587996755.1,286046998.6,N
1587996756.0,286046998.6,N
1587996775.8,286046998.4,N
1587996795.7,286047000.4,N
1587996815.5,286047000.0,N
1587996835.3,286046998.3,N
1587996855.2,286046998.3,N
1587996875.0,286046998.3,N
1587996875.9,286046998.3,N
1587996895.8,286046998.4,N
1587996915.6,286046999.1,N
1587996935.4,286046999.2,N
1587996955.3,286046999.3,N
1587996975.1,286046999.3,N
1587996995.8,286046999.1,N
1587997015.7,286046999.2,N
1587997035.5,286046994.9,Y
1587997055.4,286046999.4,P
1587997075.2,286046996.5,P
1587997095.0,286046997.1,N
1587997095.9,286046997.1,N
1587997115.8,286046997.1,N
1587997135.6,286046998.7,N
1587997155.5,286046999.0,N
1587997175.3,286046999.6,N
1587997195.1,286046996.6,Y
1587997215.9,286047000.4,P
1587997235.7,286047000.8,N
1587997255.6,286047000.0,N
1587997275.4,286046998.5,N
1587997295.2,286046998.3,N
1587997315.1,286046998.6,N
1587997316.0,286046998.6,N
1587997335.8,286046999.4,N
1587997355.7,286046999.4,N
1587997375.5,286046998.1,N
1587997395.3,286046998.6,N
1587997415.2,286046999.3,N
1587997435.0,286046996.6,Y
1587997435.9,286046996.6,P
1587997455.8,286046999.1,N
1587997475.6,286046997.0,N
1587997495.4,286046997.2,N
1587997515.3,286046996.8,Y
1587997535.1,286046998.4,P
1587997555.8,286046998.7,P
1587997575.7,286046998.6,P
1587997595.5,286046999.6,N
1587997615.4,286046999.6,N
1587997635.2,286046999.3,N
1587997655.0,286046998.8,N
1587997655.9,286046998.8,N
1587997675.8,286046997.0,Y
1587997695.6,286046998.3,P
1587997715.5,286046999.5,N
1587997735.3,286046999.0,N
1587997755.1,286046999.3,N
1587997775.9,286046996.6,Y
1587997795.7,286046997.7,P
1587997815.6,286046996.9,P
1587997835.4,286046997.4,P
1587997855.2,286046995.5,Y
1587997875.1,286046997.3,P
1587997876.0,286046997.3,P
1587997895.8,286046997.1,P
1587997915.7,286046997.8,Y
1587997935.5,286047000.5,P
1587997955.3,286047000.5,N
1587997975.2,286047000.7,N
1587997995.0,286047000.5,N
1587997995.9,286047000.5,N
1587998015.8,286047001.2,N
1587998035.6,286047000.9,N
1587998055.4,286047000.7,N
1587998075.3,286047000.9,N
1587998095.1,286047001.1,N
1587998115.9,286046998.5,N
1587998135.7,286047000.7,N
1587998155.5,286047000.9,N
1587998175.4,286047000.2,N
1587998195.2,286046999.6,N
1587998215.0,286047001.2,N
1587998216.0,286047001.2,N
1587998235.8,286046997.4,N
1587998255.6,286046999.5,N
1587998275.5,286046996.9,N
1587998295.3,286046996.6,N
1587998315.1,286046997.1,N
1587998335.9,286046996.6,N
1587998355.7,286046997.1,N
1587998375.6,286046997.3,N
1587998395.4,286046999.5,N
1587998415.2,286046998.7,N
1587998435.1,286046999.3,N
1587998436.0,286046999.3,N
1587998455.8,286046998.8,N
1587998475.6,286046998.2,N
1587998495.5,286046998.3,N
1587998515.3,286046998.8,N
1587998535.2,286046999.5,N
1587998555.9,286046999.5,N
1587998575.7,286047001.1,N
1587998595.6,286046998.6,N
1587998615.4,286047001.0,N
1587998635.3,286047001.2,N
1587998655.1,286046998.6,N
1587998656.0,286046998.6,N
1587998675.8,286047000.7,N
1587998695.7,286046998.8,N
1587998715.5,286046998.8,N
1587998735.3,286047001.2,N
1587998755.2,286046998.3,N
1587998775.0,286047000.8,N
1587998775.9,286047000.8,N
1587998795.8,286046998.2,N
1587998815.6,286047000.3,N
1587998835.4,286047002.3,N
1587998855.3,286047003.9,N
1587998875.1,286047001.8,N
1587998895.9,286047003.9,N
1587998915.7,286047002.9,N
1587998935.5,286047003.9,N
1587998955.4,286047001.5,N
1587998975.2,286047002.3,N
1587998995.0,286047003.8,N
1587998996.0,286047003.8,N
1587999015.8,286047003.7,N
1587999035.6,286047003.6,N
1587999055.5,286047001.3,N
1587999075.3,286047003.0,N
1587999095.1,286047003.3,N
1587999115.9,286047005.7,N
1587999135.7,286047007.6,Y
1587999155.6,286047003.0,P
1587999175.4,286047001.8,N
1587999195.2,286047003.6,P
1587999215.1,286047003.4,Y
1587999216.0,286047003.4,P
1587999235.8,286047000.6,N
1587999255.7,286046998.7,N
1587999275.5,286046999.8,N
1587999295.3,286047002.2,N
1587999315.2,286047001.9,N
1587999335.0,286047002.5,N
1587999335.9,286047002.5,N
1587999355.8,286047002.7,N
1587999375.6,286046999.9,N
1587999395.4,286047000.3,N
1587999415.3,286047000.8,N
1587999435.1,286046999.7,N
1587999455.8,286047000.4,N
1587999475.7,286047001.8,N
1587999495.5,286047001.7,N
1587999515.4,286047002.1,N
1587999535.2,286047000.5,N
1587999555.0,286047000.9,N
1587999555.9,286047000.9,N
1587999575.8,286047000.9,N
1587999595.6,286047001.2,N
